STARLINK-3235 (50200 NORAD) Tracking and Keplerian Element Data

This shows tracking and keplerian element data for the satellite.

Feedback or suggestion? Click here.




ElementValue
Catalog50200
NameSTARLINK-3235
Epoch Orbit130
Epoch Day140.58334491
Epoch Year2022
RAAN355.0531
Inclination53.2175
Eccentricity0.0002069
Argument of Perigee48.0327
Mean Anonmoly53.433
Mean Motion15.08813466
Decay Rate0.00037607
L11 50200U 21125AW 22140.58334491 .00037607 00000+0 23701-2 0 9991
L22 50200 53.2175 355.0531 0002069 48.0327 53.4330 15.08813466 1309

Live tracking and technical data element details for STARLINK-3235 (NORAD 50200). STARLINK-3235 can be tracked NOW for your location showing map with azimuth and elevation plus other details from your city location.

Track the satellite on the map from your city or location and see movement details for azimuth, elevation, latitude, longitude, range, height, and movement on the map or in text.







IsCatalogInMostPopularTable: catalog: 50200, numindb: 22
Update: records affected: 1



GetName: 50200 STARLINK-3235

Hit Count: updated at: Mon, 23 May 2022 20:20:13 GMT